Estación de Algarrobo Bajo INIA
Ultimos registro cada 15 minutos 83
| N° | Estación | Fecha / Hora | Temperatura | Humedad | Lluvia | Velocidad | Dirección | Radiación | Presion |
| 83 | Algarrobo Bajo INIA | 04-05-2026 20:30 | 17 | 67,4 | 0 | 0 | 0 | 0 | 0 |
| 82 | Algarrobo Bajo INIA | 04-05-2026 20:15 | 17,7 | 65,3 | 0 | 0 | 0 | 0 | 0 |
| 81 | Algarrobo Bajo INIA | 04-05-2026 20:00 | 17,8 | 65,7 | 0 | 0 | 0 | 0 | 0 |
| 80 | Algarrobo Bajo INIA | 04-05-2026 19:45 | 18 | 65,4 | 0 | 0 | 0 | 0 | 0 |
| 79 | Algarrobo Bajo INIA | 04-05-2026 19:30 | 18,2 | 64,9 | 0 | 0 | 0 | 0 | 0 |
| 78 | Algarrobo Bajo INIA | 04-05-2026 19:15 | 18,4 | 64,7 | 0 | 0 | 0 | 0 | 0 |
| 77 | Algarrobo Bajo INIA | 04-05-2026 19:00 | 18,8 | 63,5 | 0 | 0 | 0 | 0 | 0 |
| 76 | Algarrobo Bajo INIA | 04-05-2026 18:45 | 19,1 | 61,5 | 0 | 0 | 0 | 0 | 0 |
| 75 | Algarrobo Bajo INIA | 04-05-2026 18:30 | 19,3 | 60,8 | 0 | 0 | 0 | 0 | 0 |
| 74 | Algarrobo Bajo INIA | 04-05-2026 18:15 | 19,6 | 59,7 | 0 | 1,5 | 237 | 5 | 0 |
| 73 | Algarrobo Bajo INIA | 04-05-2026 18:00 | 20,2 | 57,6 | 0 | 1,8 | 235 | 13 | 0 |
| 72 | Algarrobo Bajo INIA | 04-05-2026 17:45 | 21 | 53,8 | 0 | 2,1 | 233 | 52 | 0 |
| 71 | Algarrobo Bajo INIA | 04-05-2026 17:30 | 21,7 | 50,5 | 0 | 2,5 | 223 | 104 | 0 |
| 70 | Algarrobo Bajo INIA | 04-05-2026 17:15 | 22,4 | 46,9 | 0 | 2,4 | 225 | 147 | 0 |
| 69 | Algarrobo Bajo INIA | 04-05-2026 17:00 | 23,1 | 43,5 | 0 | 1,9 | 234 | 189 | 0 |
| 68 | Algarrobo Bajo INIA | 04-05-2026 16:45 | 23,2 | 40,7 | 0 | 2,6 | 219 | 231 | 0 |
| 67 | Algarrobo Bajo INIA | 04-05-2026 16:30 | 23,6 | 37,9 | 0 | 2,7 | 222 | 274 | 0 |
| 66 | Algarrobo Bajo INIA | 04-05-2026 16:15 | 23,9 | 35,6 | 0 | 2,6 | 230 | 314 | 0 |
| 65 | Algarrobo Bajo INIA | 04-05-2026 16:00 | 24,3 | 35,2 | 0 | 3,1 | 230 | 354 | 0 |
| 64 | Algarrobo Bajo INIA | 04-05-2026 15:45 | 25 | 33 | 0 | 3,3 | 215 | 391 | 0 |
| 63 | Algarrobo Bajo INIA | 04-05-2026 15:30 | 26,1 | 33 | 0 | 3,4 | 219 | 426 | 0 |
| 62 | Algarrobo Bajo INIA | 04-05-2026 15:15 | 26,9 | 29,7 | 0 | 3,2 | 228 | 462 | 0 |
| 61 | Algarrobo Bajo INIA | 04-05-2026 15:00 | 27 | 27,2 | 0 | 2,9 | 237 | 489 | 0 |
| 60 | Algarrobo Bajo INIA | 04-05-2026 14:45 | 26,9 | 26,8 | 0 | 2,5 | 217 | 518 | 0 |
| 59 | Algarrobo Bajo INIA | 04-05-2026 14:30 | 26,6 | 24,8 | 0 | 2,6 | 215 | 539 | 0 |
| 58 | Algarrobo Bajo INIA | 04-05-2026 14:15 | 26,2 | 26,6 | 0 | 3,2 | 215 | 561 | 0 |
| 57 | Algarrobo Bajo INIA | 04-05-2026 14:00 | 26,4 | 27,2 | 0 | 3,3 | 226 | 580 | 0 |
| 56 | Algarrobo Bajo INIA | 04-05-2026 13:45 | 26,4 | 22,8 | 0 | 3,1 | 224 | 594 | 0 |
| 55 | Algarrobo Bajo INIA | 04-05-2026 13:30 | 26,2 | 22 | 0 | 3,2 | 217 | 604 | 0 |
| 54 | Algarrobo Bajo INIA | 04-05-2026 13:15 | 26,1 | 21,8 | 0 | 3 | 224 | 611 | 0 |
| 53 | Algarrobo Bajo INIA | 04-05-2026 13:00 | 26,1 | 21,6 | 0 | 3,3 | 226 | 614 | 0 |
| 52 | Algarrobo Bajo INIA | 04-05-2026 12:45 | 25,7 | 20,3 | 0 | 2,7 | 218 | 614 | 0 |
| 51 | Algarrobo Bajo INIA | 04-05-2026 12:30 | 25,4 | 22,4 | 0 | 1,7 | 222 | 610 | 0 |
| 50 | Algarrobo Bajo INIA | 04-05-2026 12:15 | 24,5 | 22,8 | 0 | 0,9 | 200 | 603 | 0 |
| 49 | Algarrobo Bajo INIA | 04-05-2026 12:00 | 23,4 | 25,7 | 0 | 0,9 | 179 | 591 | 0 |
| 48 | Algarrobo Bajo INIA | 04-05-2026 11:45 | 22,1 | 28,9 | 0 | 0,7 | 206 | 576 | 0 |
| 47 | Algarrobo Bajo INIA | 04-05-2026 11:30 | 20,9 | 35,5 | 0 | 0,4 | 165 | 559 | 0 |
| 46 | Algarrobo Bajo INIA | 04-05-2026 11:15 | 19,8 | 42,3 | 0 | 0,4 | 116 | 538 | 0 |
| 45 | Algarrobo Bajo INIA | 04-05-2026 11:00 | 18,6 | 47 | 0 | 0,5 | 102 | 513 | 0 |
| 44 | Algarrobo Bajo INIA | 04-05-2026 10:45 | 17,3 | 49,3 | 0 | 0,1 | 204 | 485 | 0 |
| 43 | Algarrobo Bajo INIA | 04-05-2026 10:30 | 15,9 | 55,1 | 0 | 0,6 | 174 | 453 | 0 |
| 42 | Algarrobo Bajo INIA | 04-05-2026 10:15 | 14,8 | 58 | 0 | 0,7 | 148 | 420 | 0 |
| 41 | Algarrobo Bajo INIA | 04-05-2026 10:00 | 13,7 | 59 | 0 | 0,5 | 158 | 384 | 0 |
| 40 | Algarrobo Bajo INIA | 04-05-2026 09:45 | 12,7 | 60,9 | 0 | 0,4 | 170 | 346 | 0 |
| 39 | Algarrobo Bajo INIA | 04-05-2026 09:30 | 11,3 | 61,4 | 0 | 0,4 | 192 | 307 | 0 |
| 38 | Algarrobo Bajo INIA | 04-05-2026 09:15 | 9,8 | 62,7 | 0 | 0,5 | 164 | 265 | 0 |
| 37 | Algarrobo Bajo INIA | 04-05-2026 09:00 | 8,7 | 66,6 | 0 | 0,8 | 197 | 223 | 0 |
| 36 | Algarrobo Bajo INIA | 04-05-2026 08:45 | 8,1 | 69,9 | 0 | 0,6 | 216 | 181 | 0 |
| 35 | Algarrobo Bajo INIA | 04-05-2026 08:30 | 8,1 | 73,4 | 0 | 0,2 | 226 | 139 | 0 |
| 34 | Algarrobo Bajo INIA | 04-05-2026 08:15 | 6,9 | 78,7 | 0 | 0 | 0 | 97 | 0 |
| 33 | Algarrobo Bajo INIA | 04-05-2026 08:00 | 4,8 | 85,2 | 0 | 0 | 42 | 51 | 0 |
| 32 | Algarrobo Bajo INIA | 04-05-2026 07:45 | 4,1 | 86,3 | 0 | 0 | 0 | 17 | 0 |
| 31 | Algarrobo Bajo INIA | 04-05-2026 07:30 | 3,9 | 85,5 | 0 | 0 | 0 | 5 | 0 |
| 30 | Algarrobo Bajo INIA | 04-05-2026 07:15 | 4 | 83,9 | 0 | 0 | 77 | 1 | 0 |
| 29 | Algarrobo Bajo INIA | 04-05-2026 07:00 | 5 | 81,7 | 0 | 0 | 68 | 0 | 0 |
| 28 | Algarrobo Bajo INIA | 04-05-2026 06:45 | 4,6 | 83,4 | 0 | 0 | 0 | 0 | 0 |
| 27 | Algarrobo Bajo INIA | 04-05-2026 06:30 | 4,6 | 82,7 | 0 | 0,1 | 57 | 0 | 0 |
| 26 | Algarrobo Bajo INIA | 04-05-2026 06:15 | 4,8 | 82,6 | 0 | 0 | 0 | 0 | 0 |
| 25 | Algarrobo Bajo INIA | 04-05-2026 06:00 | 5 | 81,9 | 0 | 0 | 0 | 0 | 0 |
| 24 | Algarrobo Bajo INIA | 04-05-2026 05:45 | 5,5 | 80,4 | 0 | 0,1 | 46 | 0 | 0 |
| 23 | Algarrobo Bajo INIA | 04-05-2026 05:30 | 5,7 | 80,9 | 0 | 0,2 | 44 | 0 | 0 |
| 22 | Algarrobo Bajo INIA | 04-05-2026 05:15 | 5,9 | 80,3 | 0 | 0,2 | 44 | 0 | 0 |
| 21 | Algarrobo Bajo INIA | 04-05-2026 05:00 | 6,3 | 81,3 | 0 | 0,3 | 5 | 0 | 0 |
| 20 | Algarrobo Bajo INIA | 04-05-2026 04:45 | 6,2 | 80,9 | 0 | 0,1 | 18 | 0 | 0 |
| 19 | Algarrobo Bajo INIA | 04-05-2026 04:30 | 6,3 | 80,7 | 0 | 0 | 0 | 0 | 0 |
| 18 | Algarrobo Bajo INIA | 04-05-2026 04:15 | 6,5 | 81,1 | 0 | 0 | 49 | 0 | 0 |
| 17 | Algarrobo Bajo INIA | 04-05-2026 04:00 | 6,1 | 82,6 | 0 | 0 | 0 | 0 | 0 |
| 16 | Algarrobo Bajo INIA | 04-05-2026 03:45 | 6,4 | 82 | 0 | 0,2 | 28 | 0 | 0 |
| 15 | Algarrobo Bajo INIA | 04-05-2026 03:30 | 6,5 | 84,1 | 0 | 0 | 0 | 0 | 0 |
| 14 | Algarrobo Bajo INIA | 04-05-2026 03:15 | 6,5 | 83,1 | 0 | 0 | 12 | 0 | 0 |
| 13 | Algarrobo Bajo INIA | 04-05-2026 03:00 | 7 | 82,8 | 0 | 0,1 | 7 | 0 | 0 |
| 12 | Algarrobo Bajo INIA | 04-05-2026 02:45 | 6,7 | 84,5 | 0 | 0,3 | 36 | 0 | 0 |
| 11 | Algarrobo Bajo INIA | 04-05-2026 02:30 | 7 | 84,1 | 0 | 0 | 0 | 0 | 0 |
| 10 | Algarrobo Bajo INIA | 04-05-2026 02:15 | 7,1 | 84,5 | 0 | 0 | 0 | 0 | 0 |
| 9 | Algarrobo Bajo INIA | 04-05-2026 02:00 | 7,6 | 84,7 | 0 | 0 | 0 | 0 | 0 |
| 8 | Algarrobo Bajo INIA | 04-05-2026 01:45 | 7,6 | 86,1 | 0 | 0,2 | 258 | 0 | 0 |
| 7 | Algarrobo Bajo INIA | 04-05-2026 01:30 | 7,5 | 87,5 | 0 | 0,6 | 262 | 0 | 0 |
| 6 | Algarrobo Bajo INIA | 04-05-2026 01:15 | 7,5 | 87,5 | 0 | 0,2 | 273 | 0 | 0 |
| 5 | Algarrobo Bajo INIA | 04-05-2026 01:00 | 7,5 | 86,4 | 0 | 0 | 0 | 0 | 0 |
| 4 | Algarrobo Bajo INIA | 04-05-2026 00:45 | 7,6 | 86,3 | 0 | 0 | 326 | 0 | 0 |
| 3 | Algarrobo Bajo INIA | 04-05-2026 00:30 | 7,6 | 85,7 | 0 | 0 | 0 | 0 | 0 |
| 2 | Algarrobo Bajo INIA | 04-05-2026 00:15 | 8,3 | 84,6 | 0 | 0,2 | 283 | 0 | 0 |
| 1 | Algarrobo Bajo INIA | 04-05-2026 00:00 | 8,6 | 84,2 | 0 | 0,2 | 37 | 0 | 0 |